Location: Franzen
(48.6167°N, 15.3833°E)
Time: 11:00:25
(UTC+00:00)

USA 305 - Pass Details

Date: 22 April 2021
Orbit: 567 x 573 km, 54.0° (Epoch: 07 May)

Event Time Altitude Azimuth Distance (km) Brightness Sun altitude
Exits shadow 23:25:52 37° 32° (NNE) 895 4.2 -28.5°
Drops below altitude 10° 23:28:51 10° 61° (ENE) 1,881 6.0 -28.4°
Sets 23:31:10 0° 67° (ENE) 2,781 6.8 -28.4°
